Weather History for Hill City, KS

Change the Weather History Date:

Tuesday, January 8, 2013

  Actual Average Record
Temperature  
Mean Temperature 31 °F 29 °F  
Max Temperature 47 °F 42 °F 74 °F (2003)
Min Temperature 14 °F 16 °F -16 °F (1942)
Degree Days  
Heating Degree Days 34    
Moisture  
Dew Point 22 °F    
Average Humidity 78    
Maximum Humidity 96    
Minimum Humidity 50    
Precipitation  
Precipitation 0.00 in 0.01 in 0.01 in (2008)
Month to date precipitation T 0.07  
Year to date precipitation T 0.07  
Sea Level Pressure  
Sea Level Pressure 30.03 in    
Wind  
Wind Speed 4 mph (West)    
Max Wind Speed 13 mph    
Max Gust Speed -    
Visibility 10 miles    
Events      
T = Trace of Precipitation, MM = Missing Value Source: NWS Daily Summary

Daily Weather History Graph

Daily Weather History Graph

Search for Another Location

Airport:

Trip Planner

Search our weather history database for the weather conditions in past years. The results will help you decide how hot, cold, wet, or windy it might be!

Date:

Astronomy

Jan. 08, 2013 Rise Set
Actual Time 7:59 AM CST 5:33 PM CST
Civil Twilight 7:29 AM CST 6:03 PM CST
Nautical Twilight 6:56 AM CST 6:36 PM CST
Astronomical Twilight 6:23 AM CST 7:08 PM CST
Moon 4:34 AM CST (1/8) 2:37 PM CST (1/8)
Length of Visible Light 10h 33m
Length of Day
9h 33m
Waning Crescent, 13% of the Moon is Illuminated
Jan 8
Waning Crescent
Jan 11
New
Jan 18
First Quarter
Jan 26
Full
Feb 3
Last Quarter

Hourly Weather History & Observations

Time (CST) Temp. Windchill Dew Point Humidity Pressure Visibility Wind Dir Wind Speed Gust Speed Precip Events Conditions
12:53 AM 17.1 °F - 16.0 °F 96% 29.96 in 7.0 mi Calm Calm - N/A   Clear
1:53 AM 17.1 °F - 15.1 °F 92% 29.94 in 9.0 mi Calm Calm - N/A   Clear
2:53 AM 15.1 °F 9.4 °F 12.9 °F 91% 29.94 in 10.0 mi NW 3.5 mph - N/A   Clear
3:53 AM 16.0 °F - 14.0 °F 92% 29.92 in 9.0 mi Calm Calm - N/A   Clear
4:53 AM 17.1 °F 11.7 °F 12.9 °F 84% 29.89 in 10.0 mi WSW 3.5 mph - N/A   Clear
6:53 AM 16.0 °F 8.8 °F 12.9 °F 88% 29.91 in 10.0 mi West 4.6 mph - N/A   Clear
7:53 AM 15.1 °F 4.2 °F 12.0 °F 88% 29.94 in 10.0 mi West 8.1 mph - N/A   Clear
8:53 AM 18.0 °F 9.8 °F 14.0 °F 84% 29.96 in 10.0 mi West 5.8 mph - N/A   Clear
9:53 AM 23.0 °F 13.9 °F 18.0 °F 81% 29.98 in 10.0 mi WSW 8.1 mph - N/A   Clear
10:53 AM 30.0 °F 23.2 °F 24.1 °F 79% 29.99 in 10.0 mi WSW 6.9 mph - N/A   Clear
11:53 AM 35.1 °F 31.0 °F 27.0 °F 72% 29.97 in 10.0 mi West 4.6 mph - N/A   Unknown
12:53 PM 37.9 °F 33.5 °F 27.0 °F 65% 29.96 in 10.0 mi WSW 5.8 mph - N/A   Unknown
1:53 PM 46.0 °F 42.5 °F 28.0 °F 50% 29.98 in 10.0 mi WNW 6.9 mph - N/A   Clear
2:53 PM 45.0 °F 38.9 °F 28.0 °F 52% 30.01 in 10.0 mi NNW 12.7 mph - N/A   Clear
3:53 PM 42.1 °F 36.1 °F 30.0 °F 62% 30.04 in 10.0 mi NNW 10.4 mph - N/A   Clear
4:53 PM 43.0 °F 38.8 °F 30.0 °F 60% 30.07 in 10.0 mi NW 6.9 mph - N/A   Clear
5:53 PM 37.9 °F 32.7 °F 30.0 °F 73% 30.12 in 10.0 mi West 6.9 mph - N/A   Clear
6:53 PM 36.0 °F 30.3 °F 28.9 °F 76% 30.15 in 10.0 mi West 6.9 mph - N/A   Clear
7:53 PM 33.1 °F 26.9 °F 28.0 °F 82% 30.19 in 10.0 mi West 6.9 mph - N/A   Clear
8:53 PM 32.0 °F 27.5 °F 28.0 °F 85% 30.21 in 10.0 mi West 4.6 mph - N/A   Clear
9:53 PM 30.9 °F 24.3 °F 27.0 °F 85% 30.23 in 10.0 mi West 6.9 mph - N/A   Clear
11:53 PM 28.0 °F 24.2 °F 25.0 °F 88% 30.27 in 10.0 mi WSW 3.5 mph - N/A   Clear